Total_Precipitation_Accumulation
0.04 0.08 0.23 0.31 0.34 0.28 0.24 0.21 0.17 0.15 0.15 0.16 0.17 0.16 0.16 0.15 0.15 0.14 0.15 0.18 0.26 0.32 0.38 0.42 0.49 0.52 0.50 0.42 0.31 0.19 0.13 0.11 0.08 0.06 0.06 0.08 0.12 0.14 0.14 0.14 0.17 0.22 0.27
0.05 0.09 0.22 0.32 0.34 0.28 0.25 0.22 0.20 0.19 0.16 0.16 0.19 0.19 0.19 0.18 0.20 0.23 0.22 0.24 0.30 0.35 0.40 0.48 0.51 0.51 0.48 0.36 0.22 0.12 0.06 0.04 0.02 0.01 0.01 0.03 0.06 0.11 0.11 0.10 0.12 0.22 0.28
0.07 0.11 0.22 0.33 0.34 0.30 0.27 0.22 0.19 0.20 0.21 0.21 0.22 0.22 0.22 0.20 0.22 0.28 0.31 0.32 0.33 0.33 0.39 0.45 0.43 0.39 0.36 0.25 0.13 0.07 0.04 0.03 0.02 0.01 0.02 0.05 0.08 0.13 0.14 0.12 0.16 0.23 0.27
0.11 0.13 0.21 0.33 0.36 0.32 0.28 0.23 0.21 0.23 0.25 0.28 0.29 0.30 0.31 0.29 0.28 0.31 0.35 0.33 0.31 0.31 0.34 0.32 0.26 0.21 0.18 0.14 0.10 0.06 0.04 0.03 0.02 0.03 0.06 0.08 0.10 0.20 0.21 0.18 0.19 0.19 0.21
0.17 0.17 0.24 0.34 0.40 0.38 0.32 0.26 0.24 0.26 0.28 0.30 0.34 0.38 0.40 0.40 0.39 0.36 0.35 0.31 0.27 0.25 0.22 0.17 0.14 0.13 0.12 0.10 0.08 0.05 0.04 0.02 0.02 0.03 0.06 0.09 0.14 0.27 0.24 0.20 0.21 0.21 0.20
0.20 0.25 0.33 0.40 0.45 0.46 0.40 0.33 0.30 0.32 0.32 0.33 0.35 0.39 0.45 0.50 0.50 0.45 0.37 0.26 0.21 0.18 0.15 0.12 0.11 0.11 0.09 0.07 0.06 0.05 0.04 0.02 0.01 0.03 0.05 0.08 0.14 0.28 0.23 0.19 0.19 0.20 0.20
0.21 0.29 0.40 0.48 0.50 0.50 0.48 0.44 0.41 0.40 0.38 0.37 0.37 0.41 0.47 0.49 0.47 0.43 0.32 0.23 0.18 0.16 0.14 0.11 0.10 0.11 0.10 0.08 0.06 0.06 0.04 0.02 0.02 0.03 0.05 0.08 0.15 0.27 0.23 0.18 0.16 0.16 0.17
0.22 0.34 0.47 0.58 0.57 0.53 0.50 0.49 0.49 0.47 0.46 0.44 0.42 0.44 0.47 0.48 0.45 0.39 0.31 0.24 0.20 0.18 0.17 0.14 0.12 0.10 0.11 0.10 0.09 0.08 0.06 0.03 0.03 0.03 0.04 0.06 0.10 0.16 0.13 0.11 0.11 0.12 0.12
0.32 0.43 0.54 0.67 0.69 0.65 0.60 0.55 0.51 0.51 0.52 0.53 0.52 0.52 0.47 0.42 0.41 0.37 0.33 0.26 0.22 0.19 0.19 0.16 0.14 0.12 0.12 0.12 0.11 0.09 0.06 0.03 0.03 0.02 0.02 0.03 0.06 0.10 0.10 0.11 0.12 0.13 0.14
0.53 0.59 0.67 0.76 0.75 0.69 0.65 0.62 0.57 0.52 0.52 0.55 0.57 0.52 0.47 0.41 0.39 0.36 0.29 0.26 0.22 0.20 0.19 0.16 0.15 0.13 0.13 0.11 0.09 0.07 0.06 0.05 0.03 0.02 0.02 0.02 0.04 0.07 0.09 0.11 0.11 0.13 0.15
0.82 0.78 0.80 0.85 0.86 0.78 0.71 0.67 0.65 0.59 0.55 0.55 0.54 0.48 0.47 0.48 0.43 0.35 0.24 0.20 0.20 0.19 0.18 0.17 0.16 0.14 0.11 0.09 0.08 0.09 0.09 0.08 0.06 0.04 0.03 0.03 0.04 0.07 0.09 0.12 0.12 0.12 0.13
0.96 0.93 0.89 0.88 0.86 0.87 0.81 0.74 0.74 0.67 0.58 0.54 0.48 0.48 0.48 0.47 0.43 0.33 0.27 0.22 0.21 0.19 0.20 0.21 0.21 0.17 0.12 0.09 0.08 0.08 0.09 0.09 0.08 0.07 0.06 0.05 0.05 0.08 0.09 0.11 0.11 0.10 0.09
1.02 1.08 1.05 1.00 0.91 0.87 0.89 0.80 0.75 0.70 0.63 0.55 0.48 0.48 0.51 0.55 0.53 0.48 0.39 0.34 0.31 0.24 0.24 0.23 0.24 0.17 0.12 0.09 0.07 0.06 0.07 0.08 0.07 0.06 0.04 0.03 0.03 0.07 0.09 0.11 0.11 0.10 0.10
1.21 1.15 1.17 1.14 1.05 0.91 0.88 0.85 0.80 0.74 0.67 0.58 0.49 0.46 0.47 0.47 0.47 0.44 0.37 0.33 0.31 0.25 0.24 0.22 0.19 0.15 0.13 0.10 0.07 0.06 0.06 0.06 0.06 0.06 0.05 0.03 0.02 0.05 0.07 0.10 0.10 0.10 0.11
1.39 1.30 1.32 1.24 1.10 1.01 0.94 0.86 0.81 0.81 0.75 0.63 0.58 0.54 0.46 0.38 0.35 0.36 0.33 0.34 0.32 0.26 0.22 0.23 0.19 0.16 0.15 0.13 0.10 0.08 0.06 0.06 0.05 0.05 0.05 0.04 0.03 0.03 0.05 0.08 0.09 0.11 0.13
1.60 1.54 1.54 1.45 1.28 1.10 1.01 0.90 0.81 0.81 0.82 0.81 0.67 0.58 0.57 0.48 0.38 0.36 0.35 0.33 0.31 0.28 0.26 0.25 0.20 0.20 0.19 0.16 0.12 0.10 0.08 0.07 0.07 0.06 0.05 0.04 0.04 0.03 0.04 0.06 0.10 0.14 0.18
1.63 1.70 1.73 1.68 1.56 1.31 1.13 1.06 0.91 0.86 0.86 0.86 0.77 0.65 0.61 0.57 0.50 0.46 0.43 0.37 0.32 0.30 0.32 0.34 0.33 0.27 0.22 0.19 0.14 0.13 0.12 0.10 0.10 0.08 0.07 0.05 0.04 0.03 0.03 0.04 0.08 0.12 0.16
1.75 1.72 1.86 1.89 1.79 1.61 1.39 1.26 1.11 0.99 0.93 0.85 0.81 0.75 0.67 0.62 0.55 0.54 0.49 0.44 0.40 0.39 0.36 0.37 0.38 0.37 0.31 0.26 0.20 0.17 0.15 0.13 0.11 0.11 0.10 0.08 0.06 0.04 0.03 0.04 0.06 0.09 0.13
1.83 1.86 1.92 2.05 2.04 1.99 1.87 1.72 1.50 1.27 1.14 1.05 0.94 0.84 0.77 0.69 0.61 0.57 0.53 0.50 0.50 0.47 0.40 0.34 0.34 0.34 0.32 0.29 0.25 0.21 0.18 0.16 0.15 0.14 0.12 0.11 0.10 0.09 0.07 0.05 0.05 0.07 0.09
2.06 2.12 2.05 2.17 2.30 2.36 2.38 2.23 2.05 1.72 1.43 1.24 1.08 1.00 0.92 0.83 0.74 0.65 0.62 0.57 0.56 0.58 0.54 0.45 0.38 0.36 0.34 0.31 0.31 0.27 0.23 0.19 0.17 0.15 0.14 0.13 0.12 0.11 0.10 0.09 0.08 0.07 0.08
2.13 2.30 2.27 2.22 2.38 2.59 2.43 2.21 2.01 1.80 1.63 1.45 1.29 1.17 1.10 1.00 0.91 0.81 0.71 0.70 0.66 0.62 0.60 0.59 0.56 0.52 0.50 0.49 0.49 0.42 0.32 0.27 0.23 0.18 0.17 0.17 0.16 0.16 0.14 0.12 0.10 0.10 0.10
1.96 2.22 2.24 2.30 2.43 2.59 2.47 2.33 2.29 2.22 2.01 1.82 1.68 1.41 1.22 1.11 1.02 0.97 0.87 0.79 0.76 0.74 0.70 0.69 0.69 0.67 0.63 0.66 0.70 0.71 0.57 0.43 0.30 0.24 0.23 0.22 0.22 0.24 0.23 0.21 0.19 0.16 0.14
1.53 1.91 2.08 2.14 2.29 2.41 2.55 2.80 2.80 2.70 2.36 1.92 1.63 1.53 1.43 1.39 1.29 1.16 1.13 1.06 0.91 0.84 0.78 0.74 0.73 0.73 0.72 0.71 0.71 0.81 0.77 0.59 0.44 0.35 0.28 0.25 0.25 0.27 0.27 0.26 0.24 0.21 0.17
1.21 1.55 1.90 2.09 2.23 2.25 2.32 2.55 2.65 2.52 2.18 1.83 1.62 1.63 1.68 1.63 1.59 1.53 1.40 1.34 1.22 1.06 0.93 0.90 0.87 0.86 0.89 0.86 0.82 0.76 0.71 0.64 0.64 0.53 0.38 0.32 0.30 0.29 0.31 0.30 0.27 0.24 0.23
1.03 1.35 1.67 1.90 2.12 2.16 2.09 2.19 2.40 2.48 2.35 2.19 2.01 1.88 1.81 1.75 1.64 1.62 1.59 1.51 1.41 1.30 1.21 1.15 1.09 1.06 1.05 1.01 0.95 0.89 0.86 0.77 0.72 0.73 0.54 0.38 0.38 0.37 0.39 0.39 0.37 0.36 0.35
0.87 1.03 1.34 1.62 1.93 2.11 2.06 2.09 2.17 2.22 2.29 2.21 2.06 2.02 1.93 1.90 1.77 1.62 1.59 1.58 1.52 1.48 1.43 1.40 1.37 1.27 1.20 1.15 1.10 1.04 1.04 0.99 0.86 0.88 0.81 0.60 0.54 0.48 0.48 0.49 0.49 0.49 0.48